軌道要素
Epoch 2011 Dec. 25.0 TT = JDT 2455920.5
T 2011 Dec. 7.19517 TT MPC
q 2.0514345 (2000.0) P Q
n 0.07470959 Peri. 32.32401 +0.29890283 -0.94682025
a 5.5832252 Node 40.63663 +0.83202632 +0.19744452
e 0.6325718 Incl. 10.53874 +0.46732141 +0.25406116
P 13.2
From 122 observations 2011 Oct. 24-2012 Jan. 27, mean residual 0".6.
|